Tracking 27420 objects as of 10-Jun-2023
HD Live streaming from Space Station
objects crossing your sky now

STARLINK-1665

Track STARLINK-1665 now!
10-day predictions
STARLINK-1665 is classified as:


NORAD ID: 46356
Int'l Code: 2020-062AH
Perigee: 553.7 km
Apogee: 555.1 km
Inclination: 53.1 °
Period: 95.6 minutes
Semi major axis: 6925 km
RCS: Unknown
Launch date: September 3, 2020
Source: United States (US)
Launch site: AIR FORCE EASTERN TEST RANGE (AFETR)
Your satellite tracking list
Your tracking list is empty




NASA's NSSDC Master Catalog

Two Line Element Set (TLE):
1 46356U 20062AH  23161.15267370 -.00000107  00000-0  11685-4 0  9992
2 46356  53.0528 201.6612 0001028  90.6386 269.4721 15.06391068153234
Source of the keplerian elements: AFSPC